Weather History for Nuiqsut, AK

Change the Weather History Date:

Monday, March 31, 2014

  Actual Average (PAKU) Record (PAKU)
Temperature  
Mean Temperature -12 °F -  
Max Temperature -5 °F -1 °F 19 °F (2008)
Min Temperature -18 °F -12 °F -38 °F (1985)
Degree Days  
Heating Degree Days 76    
Moisture  
Dew Point -15 °F    
Average Humidity 87    
Maximum Humidity 91    
Minimum Humidity 78    
Precipitation  
Precipitation 0.00 in - - ()
Sea Level Pressure  
Sea Level Pressure 30.37 in    
Wind  
Wind Speed 7 mph (ESE)    
Max Wind Speed 12 mph    
Max Gust Speed -    
Visibility 10 miles    
Events      
Averages and records for this station are not official NWS values.
T = Trace of Precipitation, MM = Missing Value Source: NWS Daily Summary

Daily Weather History Graph

Daily Weather History Graph

Search for Another Location

Airport:

Trip Planner

Search our weather history database for the weather conditions in past years. The results will help you decide how hot, cold, wet, or windy it might be!

Date:

Astronomy

Mar. 31, 2014 Rise Set
Actual Time 7:09 AM AKDT 9:08 PM AKDT
Civil Twilight 6:03 AM AKDT 10:15 PM AKDT
Nautical Twilight 4:27 AM AKDT 11:55 PM AKDT
Astronomical Twilight Sun does not rise Sun does not rise
Moon 7:03 AM AKDT (3/31) 11:41 PM AKDT (3/31)
Length of Visible Light 16h 12m
Length of Day
13h 58m
New Moon, 1% of the Moon is Illuminated
Mar 31
New Moon
Apr 7
First Quarter
Apr 14
Full
Apr 21
Last Quarter
Apr 28
New

Hourly Weather History & Observations

Time (AKDT) Temp. Windchill Dew Point Humidity Pressure Visibility Wind Dir Wind Speed Gust Speed Precip Events Conditions
12:53 AM -9.0 °F -25.2 °F -11.0 °F 91% 30.29 in 10.0 mi East 8.1 mph - N/A   Overcast
1:35 AM -11.0 °F -28.8 °F -13.0 °F 91% 30.28 in 10.0 mi ENE 9.2 mph - N/A   Scattered Clouds
1:53 AM -11.9 °F -29.9 °F -14.1 °F 90% 30.29 in 10.0 mi ENE 9.2 mph - N/A   Partly Cloudy
2:53 AM -13.0 °F -28.6 °F -15.0 °F 91% 30.30 in 10.0 mi ENE 6.9 mph - N/A   Clear
3:53 AM -14.1 °F -32.6 °F -16.1 °F 91% 30.31 in 10.0 mi ENE 9.2 mph - N/A   Clear
4:53 AM -16.1 °F -33.7 °F -18.0 °F 91% 30.30 in 10.0 mi ENE 8.1 mph - N/A   Clear
5:53 AM -17.0 °F -33.4 °F -18.9 °F 91% 30.32 in 10.0 mi ENE 6.9 mph - N/A   Clear
6:53 AM -18.0 °F -34.7 °F -20.9 °F 87% 30.32 in 10.0 mi East 6.9 mph - N/A   Clear
7:53 AM -18.9 °F -37.2 °F -20.9 °F 91% 30.34 in 10.0 mi East 8.1 mph - N/A   Clear
8:53 AM -18.0 °F -34.7 °F -22.0 °F 82% 30.35 in 10.0 mi ESE 6.9 mph - N/A   Clear
9:53 AM -16.1 °F - -18.0 °F 91% 30.36 in 10.0 mi Calm Calm - N/A   Clear
10:53 AM -14.1 °F -29.9 °F -17.0 °F 87% 30.37 in 10.0 mi East 6.9 mph - N/A   Clear
11:53 AM -11.9 °F -27.3 °F -17.0 °F 78% 30.38 in 10.0 mi East 6.9 mph - N/A   Clear
12:53 PM -9.9 °F -29.6 °F -14.1 °F 82% 30.38 in 10.0 mi East 11.5 mph - N/A   Clear
1:53 PM -9.0 °F -25.2 °F -13.0 °F 83% 30.40 in 10.0 mi ESE 8.1 mph - N/A   Clear
2:53 PM -6.0 °F -18.6 °F -11.0 °F 79% 30.40 in 10.0 mi SE 5.8 mph - N/A   Clear
3:53 PM -6.0 °F -20.1 °F -11.0 °F 79% 30.41 in 10.0 mi ESE 6.9 mph - N/A   Clear
4:53 PM -5.1 °F -15.8 °F -9.0 °F 83% 30.41 in 10.0 mi ESE 4.6 mph - N/A   Clear
5:53 PM -7.1 °F -19.9 °F -9.9 °F 87% 30.42 in 10.0 mi SSE 5.8 mph - N/A   Clear
6:53 PM -8.0 °F -19.2 °F -11.9 °F 83% 30.42 in 10.0 mi SSE 4.6 mph - N/A   Clear
7:53 PM -9.9 °F -21.5 °F -13.0 °F 86% 30.42 in 10.0 mi SSE 4.6 mph - N/A   Clear
8:53 PM -9.9 °F - -13.0 °F 86% 30.43 in 10.0 mi Calm Calm - N/A   Clear
9:53 PM -11.9 °F -21.5 °F -14.1 °F 90% 30.43 in 10.0 mi East 3.5 mph - N/A   Clear
10:53 PM -13.0 °F -22.7 °F -15.0 °F 91% 30.43 in 10.0 mi SSE 3.5 mph - N/A   Clear
11:53 PM -14.1 °F -23.9 °F -16.1 °F 91% 30.42 in 10.0 mi South 3.5 mph - N/A   Clear